Flag for Germany Weather past 2 weeks in Gummersbach, North Rhine-Westphalia, Germany

Now
52 °F

Scattered clouds.


Feels Like: 47 °F
Forecast: 33 / 41 °F
Wind: 16 mph from West

Location: Koeln / Bonn

Current Time: Mar 1, 2015 at 12:27:42 PM

Latest Report: Mar 1, 2015 at 11:50 AM


Visibility: N/A

Pressure: 29.65 "Hg

Humidity: 58%

Dew point: 37 °F

Location of GummersbachLocation

Historic Weather in Gummersbach — Graph

°F

Gummersbach temperature yesterday

Maximum temperature yesterday: 48 °F (at 3:20 PM)
Minimum temperature yesterday: 28 °F (at 4:20 AM)
Average temperature yesterday: 38 °F

Past Weeks' High & Low Weather Summary

 TemperatureHumidityPressure
High52 °F (Feb 15, 2:20 PM)100% (Feb 17, 10:50 AM)30.77 "Hg (Feb 17, 10:50 AM)
Low28 °F (Feb 15, 6:50 AM)38% (Feb 15, 2:20 PM)29.39 "Hg (Feb 21, 4:20 AM)
Average39 °F79%29.98 "Hg
* Reported Feb 14 11:20 AM — Mar 1 11:20 AM, Gummersbach, Weather by CustomWeather, © 2015

Note: Actual official high and low records may vary slightly from our data, if they occured in-between our weather recording intervals... More about our weather records

Advertising

Gummersbach weather history for previous 24 hours

 ConditionsComfort  
Time TempWeatherWind HumidityBarometerVisibility
11:20 AM
Sun, Mar 1
48 °FPartly sunny.13 mph76%29.65 "HgN/A
10:50 AM46 °FPartly sunny.13 mph82%29.65 "HgN/A
10:20 AM46 °FBroken clouds.12 mph76%29.65 "HgN/A
9:50 AM45 °FBroken clouds.10 mph81%29.65 "HgN/A
9:20 AM45 °FBroken clouds.10 mph81%29.65 "HgN/A
8:50 AM43 °FBroken clouds.10 mph87%29.62 "HgN/A
8:20 AM41 °FBroken clouds.9 mph87%29.62 "HgN/A
7:50 AM41 °FBroken clouds.10 mph87%29.62 "HgN/A
7:20 AM41 °FLight rain. Broken clouds.10 mph87%29.62 "HgN/A
6:50 AM39 °FPartly cloudy.10 mph93%29.62 "HgN/A
6:20 AM39 °FLight rain. Partly cloudy.10 mph93%29.62 "HgN/A
5:50 AM39 °FLight rain. Passing clouds.10 mph93%29.65 "HgN/A
5:20 AM39 °FLight rain. Partly cloudy.13 mph93%29.65 "HgN/A
4:20 AM39 °FLight rain. Partly cloudy.15 mph93%29.65 "HgN/A
3:50 AM37 °FLight rain. Passing clouds.9 mph93%29.68 "HgN/A
3:20 AM39 °FLight rain. Passing clouds.10 mph81%29.71 "HgN/A
2:50 AM41 °FLight rain. Partly cloudy.15 mph70%29.71 "HgN/A
2:20 AM41 °FLight rain. Mostly cloudy.14 mph61%29.71 "HgN/A
1:50 AM41 °FLight rain. Passing clouds.8 mph61%29.77 "HgN/A
1:20 AM41 °FPartly cloudy.9 mph61%29.77 "HgN/A
12:50 AM41 °FClear.14 mph57%29.77 "Hg10 mi
12:20 AM41 °FClear.10 mph57%29.80 "Hg10 mi
11:50 PM
Sat, Feb 28
41 °FPartly cloudy.13 mph57%29.80 "HgN/A
11:20 PM41 °FPassing clouds.13 mph57%29.83 "HgN/A
10:50 PM41 °FPassing clouds.13 mph57%29.86 "HgN/A
10:20 PM41 °FPassing clouds.12 mph57%29.86 "HgN/A
9:50 PM39 °FPassing clouds.10 mph61%29.89 "HgN/A
9:20 PM37 °FClear.12 mph65%29.92 "Hg10 mi
8:50 PM41 °FClear.10 mph53%29.95 "Hg10 mi
8:20 PM37 °FClear.10 mph65%29.95 "Hg10 mi
7:50 PM37 °FClear.10 mph60%29.95 "Hg10 mi
7:20 PM39 °FClear.12 mph56%29.95 "Hg10 mi
6:50 PM39 °FClear.9 mph61%29.98 "Hg10 mi
6:20 PM39 °FClear.10 mph56%29.98 "Hg10 mi
5:50 PM43 °FSunny.13 mph49%29.98 "Hg10 mi
5:20 PM45 °FSunny.14 mph42%29.98 "Hg10 mi
4:50 PM46 °FSunny.15 mph40%29.98 "Hg10 mi
4:20 PM46 °FSunny.14 mph40%30.01 "Hg10 mi
3:50 PM46 °FScattered clouds.12 mph40%30.01 "HgN/A
3:20 PM48 °FScattered clouds.12 mph43%30.04 "HgN/A
2:50 PM46 °FPartly sunny.12 mph46%30.04 "HgN/A
2:20 PM46 °FScattered clouds.14 mph46%30.07 "HgN/A
1:50 PM46 °FScattered clouds.12 mph46%30.07 "HgN/A
1:20 PM46 °FPartly sunny.10 mph50%30.07 "HgN/A
12:50 PM45 °FPartly sunny.12 mph57%30.09 "HgN/A
12:20 PM45 °FPartly sunny.12 mph57%30.09 "HgN/A
Weather by CustomWeather, © 2015

See weather overviewHow to use our weather pages